Location: Newark
(44.1667°N, 8.2500°E)
Time: 18:30:30
(UTC+00:00)

Envisat - Pass Details

Date: 12 November 2019
Orbit: 764 x 766 km, 98.1° (Epoch: 12 December)

Event Time Altitude Azimuth Distance (km) Brightness Sun altitude
Rises 16:35:42 0° 140° (SE) 3,222 6.0 -6.1°
Reaches altitude 10° 16:38:09 10° 131° (SE) 2,300 5.2 -6.6°
Maximum altitude 16:42:43 35° 67° (ENE) 1,232 3.6 -7.3°
Drops below altitude 10° 16:47:17 10° 4° (N) 2,314 5.3 -8.1°
Sets 16:49:46 0° 355° (N) 3,244 6.1 -8.6°
